• Join FlightAware (Why Join?)
  • Login
  • US Flag GB Flag 
18:49 EDT


 

Airport Tracker/Info


-or-


 

Live Flight TrackerFlight Track Log ✈ DAL268 ✈ 16-Apr-2013 ✈ KJFK - LLBG / TLV

Flight Track Log - Related Links

Times and Time Zones

All times are in EDT time to prevent confusion due to time zone crossing. See the DAL268 flight status page for this flight to view local times or setup timezone preferences in your user account.

Time Position Orientation Groundspeed Altitude Reporting Facility
EDT Latitude Longitude Course Direction KTS MPH feet Rate Location/Type
00:06 40.6190 -73.7920 212° Southwest 171 197 100  Level FlightAware
00:07 40.6020 -73.8050 210° Southwest 171 197 1,000 1,620 Climbing FlightAware
00:07 40.5800 -73.8210 209° Southwest 201 231 1,600 1,200 Climbing FlightAware
00:08 40.5500 -73.8380 203° Southwest 238 274 2,200 1,380 Climbing FlightAware
00:08 40.5220 -73.8400 183° South 270 311 2,900 2,040 Climbing FlightAware
00:09 40.4850 -73.8220 160° South 298 343 4,100 2,520 Climbing FlightAware
00:09 40.4715 -73.8046 136° Southeast 308 354 4,700 3,000 Climbing FlightAware ADS-B
00:09 40.4682 -73.7983 125° Southeast 311 358 4,900 2,400 Climbing FlightAware ADS-B
00:09 40.4643 -73.7898 121° Southeast 315 362 5,100 2,700 Climbing FlightAware ADS-B
00:09 40.4608 -73.7795 114° Southeast 319 367 5,400 2,400 Climbing FlightAware ADS-B
00:09 40.4586 -73.7715 110° East 321 369 5,500 2,220 Climbing FlightAware ADS-B
00:09 40.4574 -73.7645 103° East 324 373 5,700 2,520 Climbing FlightAware ADS-B
00:09 40.4565 -73.7568 99° East 326 375 5,800 2,220 Climbing FlightAware ADS-B
00:09 40.4561 -73.7494 94° East 327 376 6,000 2,220 Climbing FlightAware ADS-B
00:09 40.4561 -73.7410 90° East 328 377 6,100 1,800 Climbing FlightAware ADS-B
00:09 40.4570 -73.7296 84° East 329 379 6,300 1,980 Climbing FlightAware ADS-B
00:10 40.4579 -73.7233 79° East 327 376 6,400 1,500 Climbing FlightAware ADS-B
00:10 40.4599 -73.7137 75° East 325 374 6,500 1,200 Climbing FlightAware ADS-B
00:10 40.4628 -73.7043 68° East 323 372 6,600 660 Climbing FlightAware ADS-B
00:10 40.4656 -73.6974 62° Northeast 321 369 6,600 480 Level FlightAware ADS-B
00:10 40.4722 -73.6847 56° Northeast 318 366 6,700 420 Climbing FlightAware ADS-B
00:10 40.4774 -73.6774 47° Northeast 316 364 6,700  Level FlightAware ADS-B
00:10 40.4807 -73.6735 42° Northeast 314 361 6,700  Level FlightAware ADS-B
00:10 40.4863 -73.6678 38° Northeast 310 357 6,700  Level FlightAware ADS-B
00:10 40.4903 -73.6648 30° Northeast 308 354 6,700  Level FlightAware ADS-B
00:10 40.4946 -73.6619 27° Northeast 306 352 6,700  Level FlightAware ADS-B
00:10 40.4997 -73.6592 22° Northeast 303 349 6,700  Level FlightAware ADS-B
00:10 40.5064 -73.6567 16° North 301 346 6,700  Level FlightAware ADS-B
00:11 40.5181 -73.6543 North 298 343 6,700  Level FlightAware ADS-B
00:11 40.5284 -73.6533 North 296 341 6,700 240 Level FlightAware ADS-B
00:11 40.5473 -73.6523 North 294 338 6,800 180 Climbing FlightAware ADS-B
00:11 40.5682 -73.6517 North 297 342 6,800 180 Level FlightAware ADS-B
00:11 40.5904 -73.6510 North 301 346 6,900 1,260 Climbing FlightAware ADS-B
00:12 40.6128 -73.6503 North 303 349 7,500 2,760 Climbing FlightAware ADS-B
00:12 40.6348 -73.6494 North 298 343 8,400 3,120 Climbing FlightAware ADS-B
00:12 40.6479 -73.6485 North 302 348 8,800 2,400 Climbing FlightAware ADS-B
00:12 40.6559 -73.6469 North 307 353 9,000 2,160 Climbing FlightAware ADS-B
00:12 40.6626 -73.6443 16° North 311 358 9,200 2,040 Climbing FlightAware ADS-B
00:13 40.7059 -73.6097 31° Northeast 327 376 10,300 1,500 Climbing FlightAware ADS-B
00:14 40.8020 -73.5380 29° Northeast 390 449 11,700 1,380 Climbing FlightAware
00:14 40.8403 -73.5118 27° Northeast 401 461 12,400 2,100 Climbing FlightAware ADS-B
00:15 40.8918 -73.4773 27° Northeast 410 472 13,600 2,220 Climbing FlightAware ADS-B
00:15 40.9447 -73.4417 27° Northeast 418 481 14,700 2,160 Climbing FlightAware ADS-B
00:16 41.0066 -73.3996 27° Northeast 425 489 16,000 2,040 Climbing FlightAware ADS-B
00:16 41.0599 -73.3635 27° Northeast 430 495 17,000 2,040 Climbing FlightAware ADS-B
00:17 41.1145 -73.3262 27° Northeast 433 498 18,100 2,040 Climbing FlightAware ADS-B
00:17 41.1592 -73.2955 27° Northeast 438 504 18,900 1,680 Climbing FlightAware ADS-B
00:18 41.1806 -73.2764 34° Northeast 449 517 19,200 1,260 Climbing FlightAware ADS-B
00:18 41.1900 -73.2649 43° Northeast 455 524 19,300 1,620 Climbing FlightAware ADS-B
00:18 41.1975 -73.2545 46° Northeast 457 526 19,500 1,800 Climbing FlightAware ADS-B
00:18 41.2388 -73.1858 51° Northeast 463 533 20,400 1,620 Climbing FlightAware ADS-B
00:19 41.2821 -73.1194 49° Northeast 467 537 21,200 1,500 Climbing FlightAware ADS-B
00:19 41.3265 -73.0523 49° Northeast 475 547 22,000 1,380 Climbing FlightAware ADS-B
00:20 41.3960 -72.9400 50° Northeast 480 552 23,200 1,320 Climbing FlightAware
00:21 41.4329 -72.8817 50° Northeast 476 548 23,700 1,260 Climbing FlightAware ADS-B
00:21 41.4779 -72.8095 50° Northeast 498 573 24,300 1,080 Climbing FlightAware ADS-B
00:22 41.5289 -72.7271 50° Northeast 505 581 24,900 960 Climbing FlightAware ADS-B
00:23 41.6260 -72.5710 50° Northeast 521 600 26,000 960 Climbing FlightAware
00:23 41.6780 -72.4860 51° Northeast 526 605 26,600 1,080 Climbing FlightAware
00:24 41.7590 -72.3530 51° Northeast 535 616 27,600 1,080 Climbing FlightAware
00:25 41.8440 -72.2130 51° Northeast 542 624 28,500 1,140 Climbing FlightAware
00:26 41.9200 -72.0890 50° Northeast 543 625 29,500 1,320 Climbing FlightAware
00:27 41.9830 -71.9840 51° Northeast 541 623 30,400 1,080 Climbing FlightAware
00:27 42.0460 -71.8800 51° Northeast 542 624 31,000 420 Climbing FlightAware
00:28 42.1150 -71.7640 51° Northeast 541 623 31,000  Level FlightAware
00:29 42.1790 -71.6580 51° Northeast 541 623 31,000  Level FlightAware
00:29 42.2520 -71.5350 51° Northeast 539 620 31,000  Level FlightAware
00:30 42.3130 -71.4320 51° Northeast 540 621 31,000  Level FlightAware
00:31 42.3830 -71.3150 51° Northeast 539 620 31,000  Level FlightAware
00:31 42.4450 -71.2080 52° Northeast 540 621 31,000  Level FlightAware
00:32 42.5140 -71.0900 52° Northeast 542 624 31,000  Level FlightAware
00:33 42.5780 -70.9800 52° Northeast 545 627 31,000  Level FlightAware
00:34 42.6480 -70.8610 51° Northeast 548 631 31,000  Level FlightAware
00:34 42.7100 -70.7540 52° Northeast 549 632 31,000  Level FlightAware
00:35 42.7740 -70.6430 52° Northeast 550 633 31,000  Level FlightAware
00:36 42.8440 -70.5210 52° Northeast 552 635 31,000  Level FlightAware
00:36 42.9080 -70.4090 52° Northeast 553 636 31,000  Level FlightAware
00:37 42.9610 -70.3170 52° Northeast 553 636 31,000  Level FlightAware
00:38 43.0410 -70.1770 52° Northeast 553 636 31,000  Level FlightAware
00:38 43.0980 -70.0770 52° Northeast 554 638 31,000  Level FlightAware
00:39 43.1520 -69.9800 53° Northeast 554 638 31,000  Level FlightAware
00:40 43.2130 -69.8720 52° Northeast 554 638 31,000  Level FlightAware
00:40 43.2750 -69.7610 52° Northeast 553 636 31,000  Level FlightAware
00:41 43.3480 -69.6310 52° Northeast 554 638 31,000  Level FlightAware
00:42 43.4150 -69.5110 52° Northeast 555 639 31,000  Level FlightAware
00:42 43.4750 -69.4010 53° Northeast 558 642 31,000  Level FlightAware
00:43 43.5310 -69.3000 53° Northeast 559 643 31,000  Level FlightAware
00:46 43.8170 -68.7770 53° Northeast 568 654 31,000  Level FlightAware
00:48 43.9670 -68.4990 53° Northeast 569 655 31,000  Level FlightAware
00:49 44.0490 -68.3450 53° Northeast 569 655 31,000  Level FlightAware
00:49 44.1160 -68.2200 53° Northeast 567 652 31,000  Level FlightAware
00:50 44.1840 -68.0910 54° Northeast 568 654 31,000  Level FlightAware
00:51 44.2450 -67.9760 53° Northeast 568 654 31,000  Level FlightAware
00:51 44.3090 -67.8550 54° Northeast 567 652 31,000  Level FlightAware
00:52 44.3790 -67.7190 54° Northeast 565 650 31,000  Level FlightAware
00:53 44.4410 -67.6010 54° Northeast 566 651 31,000  Level FlightAware
00:53 44.5030 -67.4820 54° Northeast 566 651 31,000  Level FlightAware
00:54 44.5700 -67.3510 54° Northeast 567 652 31,000  Level FlightAware
00:55 44.6320 -67.2310 54° Northeast 568 654 31,000  Level FlightAware
00:55 44.6930 -67.1130 54° Northeast 567 652 31,000  Level FlightAware
00:56 44.7630 -66.9750 54° Northeast 566 651 31,000  Level FlightAware
00:57 44.8120 -66.8780 55° Northeast 568 654 31,000  Level FlightAware
00:58 44.8940 -66.7170 54° Northeast 570 656 31,000  Level FlightAware
00:58 44.9510 -66.6040 54° Northeast 571 657 31,000  Level FlightAware
00:59 45.0210 -66.4640 55° Northeast 572 658 31,000  Level FlightAware
01:00 45.0850 -66.3370 54° Northeast 573 659 31,000  Level FlightAware
01:00 45.1510 -66.2020 55° Northeast 572 658 31,000  Level FlightAware
01:01 45.2120 -66.0790 55° Northeast 573 659 31,000  Level FlightAware
01:02 45.2750 -65.9510 55° Northeast 574 661 31,000  Level FlightAware
01:03 45.3430 -65.8130 55° Northeast 577 664 31,000  Level FlightAware
01:03 45.4030 -65.6890 55° Northeast 580 667 31,000  Level FlightAware
01:04 45.4730 -65.5450 55° Northeast 582 670 31,000  Level FlightAware
01:05 45.5340 -65.4190 55° Northeast 582 670 31,000  Level FlightAware
01:05 45.5930 -65.2980 55° Northeast 582 670 31,000  Level FlightAware
01:06 45.6540 -65.1700 56° Northeast 586 674 31,000  Level FlightAware
01:07 45.7240 -65.0230 56° Northeast 588 677 31,000  Level FlightAware
01:07 45.7920 -64.8800 56° Northeast 589 678 31,000  Level FlightAware
01:08 45.8670 -64.7210 56° Northeast 591 680 31,000  Level FlightAware
01:09 45.9530 -64.5380 56° Northeast 591 680 31,000  Level FlightAware
01:10 46.0050 -64.4270 56° Northeast 591 680 31,000  Level FlightAware
01:11 46.0570 -64.3160 56° Northeast 591 680 31,000  Level FlightAware
01:11 46.1090 -64.2050 56° Northeast 591 680 31,000  Level FlightAware
01:12 46.1740 -64.0660 56° Northeast 591 680 31,000  Level FlightAware
01:13 46.2260 -63.9540 56° Northeast 591 680 31,000  Level FlightAware
01:13 46.2780 -63.8430 56° Northeast 591 680 31,000  Level FlightAware
01:14 46.3300 -63.7310 56° Northeast 591 680 31,000  Level FlightAware
01:15 46.3820 -63.6200 56° Northeast 591 680 31,000  Level FlightAware
01:15 46.4340 -63.5080 56° Northeast 591 680 31,000  Level FlightAware
01:16 46.4990 -63.3680 56° Northeast 591 680 31,000  Level FlightAware
01:17 46.5500 -63.2560 56° Northeast 591 680 31,000  Level FlightAware
01:18 46.6020 -63.1440 56° Northeast 591 680 31,000  Level FlightAware
01:18 46.6540 -63.0320 56° Northeast 591 680 31,000  Level FlightAware
01:23 47.1480 -61.8560 58° Northeast 573 659 31,000  Level FlightAware
01:23 47.2030 -61.7270 58° Northeast 573 659 31,000  Level FlightAware
01:24 47.2740 -61.5580 58° Northeast 570 656 31,000  Level FlightAware
01:25 47.3350 -61.4120 58° Northeast 571 657 31,000  Level FlightAware
01:26 47.3910 -61.2770 58° Northeast 571 657 31,000  Level FlightAware
01:26 47.4470 -61.1430 58° Northeast 568 654 31,000  Level FlightAware
01:27 47.5220 -60.9630 58° Northeast 564 649 31,000  Level FlightAware
01:28 47.5690 -60.8510 58° Northeast 564 649 31,000  Level FlightAware
01:29 47.6160 -60.7400 58° Northeast 564 649 31,000  Level FlightAware
01:29 47.6630 -60.6280 58° Northeast 564 649 31,000  Level FlightAware
01:30 47.7100 -60.5160 58° Northeast 564 649 31,000  Level FlightAware
01:31 47.7690 -60.3760 58° Northeast 564 649 31,000  Level FlightAware
01:31 47.8160 -60.2640 58° Northeast 564 649 31,000  Level FlightAware
01:32 47.8630 -60.1520 58° Northeast 564 649 31,000  Level FlightAware
01:33 47.9100 -60.0400 58° Northeast 564 649 31,000  Level FlightAware
01:33 47.9570 -59.9280 58° Northeast 564 649 31,000  Level FlightAware
01:34 48.0040 -59.8150 58° Northeast 564 649 31,000  Level FlightAware
01:35 48.0630 -59.6750 58° Northeast 564 649 31,000  Level FlightAware
01:36 48.1100 -59.5620 58° Northeast 564 649 31,000  Level FlightAware
01:36 48.1570 -59.4490 58° Northeast 564 649 31,000  Level FlightAware
01:37 48.2667 -59.0000 58° Northeast 550 633 31,000  Level Gander Center
01:37 48.3167 -58.9000 53° Northeast 550 633 31,000  Level Gander Center
01:38 48.3500 -58.8000 63° Northeast 550 633 31,000  Level Moncton Center
01:39 48.4333 -58.5833 60° Northeast 550 633 31,000  Level Moncton Center
01:39 48.4667 -58.4833 63° Northeast 550 633 31,000 120 Level Gander Center
01:45 48.9030 -57.3020 63° Northeast 552 635 32,000 120 Climbing FlightAware
01:46 48.9440 -57.1790 63° Northeast 551 634 32,000  Level FlightAware
01:47 48.9840 -57.0610 63° Northeast 551 634 32,000  Level FlightAware
01:47 49.0230 -56.9440 63° Northeast 551 634 32,000  Level FlightAware
01:48 49.0720 -56.7960 63° Northeast 551 634 32,000  Level FlightAware
01:49 49.1400 -56.5800 64° Northeast 557 641 32,000  Level FlightAware
01:50 49.1800 -56.4610 63° Northeast 557 641 32,000  Level FlightAware
01:50 49.2200 -56.3410 63° Northeast 557 641 32,000  Level FlightAware
01:51 49.2600 -56.2220 63° Northeast 557 641 32,000  Level FlightAware
01:52 49.3090 -56.0720 63° Northeast 557 641 32,000  Level FlightAware
01:52 49.3390 -55.9820 63° Northeast 557 641 32,000  Level FlightAware
01:53 49.3890 -55.8320 63° Northeast 557 641 32,000  Level FlightAware
01:54 49.4290 -55.7120 63° Northeast 557 641 32,000  Level FlightAware
01:54 49.4680 -55.5920 63° Northeast 557 641 32,000  Level FlightAware
01:55 49.5080 -55.4720 63° Northeast 557 641 32,000  Level FlightAware
01:56 49.5480 -55.3520 63° Northeast 557 641 32,000  Level FlightAware
01:57 49.5980 -55.2010 63° Northeast 557 641 32,000  Level FlightAware
01:57 49.6370 -55.0810 63° Northeast 557 641 32,000  Level FlightAware
01:58 49.6770 -54.9600 63° Northeast 557 641 32,000  Level FlightAware
02:03 50.0750 -53.4910 67° East 543 625 32,000  Level FlightAware
02:04 50.1080 -53.3750 66° East 543 625 32,000  Level FlightAware
02:05 50.1430 -53.2540 66° East 543 625 32,000  Level FlightAware
02:06 50.1860 -53.1010 66° East 543 625 32,000  Level FlightAware
02:06 50.2210 -52.9790 66° East 543 625 32,000  Level FlightAware
02:07 50.2960 -52.7010 67° East 541 623 32,000  Level FlightAware
02:08 50.3300 -52.5790 66° East 541 623 32,000  Level FlightAware
02:08 50.3650 -52.4570 66° East 541 623 32,000  Level FlightAware
02:09 50.4080 -52.3050 66° East 541 623 32,000  Level FlightAware
02:10 50.4430 -52.1830 66° East 541 623 32,000  Level FlightAware
02:11 50.4770 -52.0610 66° East 541 623 32,000  Level FlightAware
02:11 50.5120 -51.9380 66° East 541 623 32,000  Level FlightAware
02:12 50.5470 -51.8160 66° East 541 623 32,000  Level FlightAware
02:13 50.5900 -51.6630 66° East 541 623 32,000  Level FlightAware
02:13 50.6250 -51.5410 66° East 541 623 32,000  Level FlightAware
02:14 50.6590 -51.4180 66° East 541 623 32,000  Level FlightAware
02:15 50.6940 -51.2950 66° East 541 623 32,000  Level FlightAware
02:15 50.7280 -51.1730 66° East 541 623 32,000  Level FlightAware
02:16 50.7720 -51.0190 66° East 541 623 32,000  Level FlightAware
02:17 50.8500 -50.5000 66° East 530 610 32,000  Level Gander Center
02:17 50.8667 -50.4000 75° East 530 610 32,000  Level Gander Center
02:18 50.9333 -50.1667 66° East 530 610 32,000  Level Gander Center
02:19 50.9833 -49.9667 68° East 530 610 32,000  Level Gander Center
02:20 51.0167 -49.7333 77° East 530 610 32,000  Level Gander Center
02:21 51.0333 -49.6000 79° East 530 610 32,000  Level Gander Center
02:22 51.0000 -50.0000 77° East 515 593 32,000  Level ETMS Enhanced Traffic Management System
02:22 51.0667 -49.3833 77° East 530 610 32,000  Level Gander Center
02:22 51.0667 -49.2500 90° East 550 633 32,000  Level Gander Center
02:23 51.0833 -49.1333 77° East 550 633 32,000  Level Gander Center
02:25 51.1336 -48.7745 77° East  Level FlightAware Approximate
02:32 51.3428 -47.1791 78° East  Level FlightAware Approximate
02:33 51.3709 -46.9500 79° East  Level FlightAware Approximate
02:34 51.3985 -46.7206 79° East  Level FlightAware Approximate
02:35 51.4258 -46.4910 79° East  Level FlightAware Approximate
02:36 51.4525 -46.2611 79° East  Level FlightAware Approximate
02:37 51.4788 -46.0309 80° East  Level FlightAware Approximate
02:38 51.5047 -45.8004 80° East  Level FlightAware Approximate
02:39 51.5293 -45.5767 80° East  Level FlightAware Approximate
02:40 51.5536 -45.3527 80° East  Level FlightAware Approximate
02:41 51.5774 -45.1285 80° East  Level FlightAware Approximate
02:42 51.6007 -44.9040 80° East  Level FlightAware Approximate
02:43 51.6237 -44.6793 81° East  Level FlightAware Approximate
02:44 51.6462 -44.4544 81° East  Level FlightAware Approximate
02:45 51.6683 -44.2293 81° East  Level FlightAware Approximate
02:46 51.6899 -44.0039 81° East  Level FlightAware Approximate
02:47 51.7111 -43.7783 81° East  Level FlightAware Approximate
02:48 51.7319 -43.5526 81° East  Level FlightAware Approximate
02:49 51.7522 -43.3266 82° East  Level FlightAware Approximate
02:50 51.7722 -43.1004 82° East  Level FlightAware Approximate
02:51 51.7916 -42.8740 82° East  Level FlightAware Approximate
02:52 51.8107 -42.6474 82° East  Level FlightAware Approximate
02:53 51.8293 -42.4207 82° East  Level FlightAware Approximate
02:54 51.8475 -42.1937 83° East  Level FlightAware Approximate
02:55 51.8652 -41.9666 83° East  Level FlightAware Approximate
02:56 51.8825 -41.7393 83° East  Level FlightAware Approximate
02:57 51.8994 -41.5118 83° East  Level FlightAware Approximate
02:58 51.9158 -41.2841 83° East  Level FlightAware Approximate
02:59 51.9318 -41.0563 83° East  Level FlightAware Approximate
03:00 51.9473 -40.8283 84° East  Level FlightAware Approximate
03:01 51.9624 -40.6002 84° East  Level FlightAware Approximate
03:02 51.9771 -40.3719 84° East  Level FlightAware Approximate
03:03 51.9913 -40.1435 84° East  Level FlightAware Approximate
03:04 52.0121 -39.9166 77° East  Level FlightAware Approximate
03:05 52.0442 -39.6928 77° East  Level FlightAware Approximate
03:06 52.0759 -39.4687 77° East  Level FlightAware Approximate
03:06 52.0000 -40.0000 77° East 504 580 32,000  Level ETMS Enhanced Traffic Management System
03:07 52.1071 -39.2442 77° East  Level FlightAware Approximate
03:08 52.1379 -39.0194 77° East  Level FlightAware Approximate
03:09 52.1683 -38.7943 77° East  Level FlightAware Approximate
03:10 52.1983 -38.5690 78° East  Level FlightAware Approximate
03:11 52.2278 -38.3433 78° East  Level FlightAware Approximate
03:12 52.2726 -37.9944 78° East 504 580 32,000  Level FlightAware Transoceanic
03:13 52.3008 -37.7700 78° East 504 580 32,000  Level FlightAware Transoceanic
03:14 52.3285 -37.5454 79° East 504 580 32,000  Level FlightAware Transoceanic
03:15 52.3558 -37.3205 79° East 504 580 32,000  Level FlightAware Transoceanic
03:16 52.3827 -37.0953 79° East 504 580 32,000  Level FlightAware Transoceanic
03:17 52.4092 -36.8699 79° East 504 580 32,000  Level FlightAware Transoceanic
03:18 52.4352 -36.6442 79° East 504 580 32,000  Level FlightAware Transoceanic
03:19 52.4609 -36.4182 80° East 504 580 32,000  Level FlightAware Transoceanic
03:20 52.4860 -36.1920 80° East 504 580 32,000  Level FlightAware Transoceanic
03:21 52.5108 -35.9655 80° East 504 580 32,000  Level FlightAware Transoceanic
03:22 52.5351 -35.7387 80° East 504 580 32,000  Level FlightAware Transoceanic
03:23 52.5590 -35.5117 80° East 504 580 32,000  Level FlightAware Transoceanic
03:24 52.5824 -35.2845 80° East 504 580 32,000  Level FlightAware Transoceanic
03:25 52.6054 -35.0570 81° East 504 580 32,000  Level FlightAware Transoceanic
03:26 52.6280 -34.8293 81° East 504 580 32,000  Level FlightAware Transoceanic
03:27 52.6502 -34.6013 81° East 504 580 32,000  Level FlightAware Transoceanic
03:28 52.6718 -34.3732 81° East 504 580 32,000  Level FlightAware Transoceanic
03:29 52.6931 -34.1447 81° East 504 580 32,000  Level FlightAware Transoceanic
03:30 52.7139 -33.9161 82° East 504 580 32,000  Level FlightAware Transoceanic
03:31 52.7343 -33.6873 82° East 504 580 32,000  Level FlightAware Transoceanic
03:32 52.7542 -33.4582 82° East 504 580 32,000  Level FlightAware Transoceanic
03:33 52.7738 -33.2290 82° East 504 580 32,000  Level FlightAware Transoceanic
03:34 52.7928 -32.9995 82° East 504 580 32,000  Level FlightAware Transoceanic
03:35 52.8114 -32.7698 82° East 504 580 32,000  Level FlightAware Transoceanic
03:36 52.8296 -32.5400 83° East 504 580 32,000  Level FlightAware Transoceanic
03:37 52.8473 -32.3099 83° East 504 580 32,000  Level FlightAware Transoceanic
03:38 52.8646 -32.0797 83° East 504 580 32,000  Level FlightAware Transoceanic
03:39 52.8814 -31.8493 83° East 504 580 32,000  Level FlightAware Transoceanic
03:40 52.8978 -31.6187 83° East 504 580 32,000  Level FlightAware Transoceanic
03:41 52.9138 -31.3879 84° East 504 580 32,000  Level FlightAware Transoceanic
03:42 52.9293 -31.1570 84° East 504 580 32,000  Level FlightAware Transoceanic
03:43 52.9443 -30.9259 84° East 504 580 32,000  Level FlightAware Transoceanic
03:44 52.9589 -30.6947 84° East 504 580 32,000  Level FlightAware Transoceanic
03:45 52.9730 -30.4632 84° East 504 580 32,000  Level FlightAware Transoceanic
03:46 52.9868 -30.2317 84° East 504 580 32,000  Level FlightAware Transoceanic
03:47 53.0001 -29.9974 84° East  Level FlightAware Approximate
03:48 53.0002 -29.9949 86° East  Level FlightAware Approximate
03:49 53.0096 -29.7600 86° East  Level FlightAware Approximate
03:49 53.0000 -30.0000 86° East 503 579 32,000  Level ETMS Enhanced Traffic Management System
03:50 53.0186 -29.5250 86° East  Level FlightAware Approximate
03:51 53.0270 -29.2900 86° East  Level FlightAware Approximate
03:52 53.0350 -29.0548 87° East  Level FlightAware Approximate
03:53 53.0426 -28.8196 87° East  Level FlightAware Approximate
03:54 53.0497 -28.5843 87° East  Level FlightAware Approximate
03:55 53.0635 -28.1426 87° East 503 579 32,000  Level FlightAware Transoceanic
03:56 53.0694 -27.9101 88° East 503 579 32,000  Level FlightAware Transoceanic
03:57 53.0749 -27.6775 88° East 503 579 32,000  Level FlightAware Transoceanic
03:58 53.0799 -27.4449 88° East 503 579 32,000  Level FlightAware Transoceanic
03:59 53.0844 -27.2122 88° East 503 579 32,000  Level FlightAware Transoceanic
04:00 53.0885 -26.9795 88° East 503 579 32,000  Level FlightAware Transoceanic
04:01 53.0922 -26.7467 89° East 503 579 32,000  Level FlightAware Transoceanic
04:02 53.0953 -26.5139 89° East 503 579 32,000  Level FlightAware Transoceanic
04:03 53.0981 -26.2810 89° East 503 579 32,000  Level FlightAware Transoceanic
04:04 53.1003 -26.0481 89° East 503 579 32,000  Level FlightAware Transoceanic
04:05 53.1021 -25.8152 89° East 503 579 32,000  Level FlightAware Transoceanic
04:06 53.1035 -25.5823 90° East 503 579 32,000  Level FlightAware Transoceanic
04:07 53.1044 -25.3494 90° East 503 579 32,000  Level FlightAware Transoceanic
04:08 53.1049 -25.1165 90° East 503 579 32,000  Level FlightAware Transoceanic
04:09 53.1049 -24.8835 90° East 503 579 32,000  Level FlightAware Transoceanic
04:10 53.1044 -24.6506 90° East 503 579 32,000  Level FlightAware Transoceanic
04:11 53.1035 -24.4177 90° East 503 579 32,000  Level FlightAware Transoceanic
04:12 53.1021 -24.1848 91° East 503 579 32,000  Level FlightAware Transoceanic
04:13 53.1003 -23.9519 91° East 503 579 32,000  Level FlightAware Transoceanic
04:14 53.0981 -23.7190 91° East 503 579 32,000  Level FlightAware Transoceanic
04:15 53.0953 -23.4861 91° East 503 579 32,000  Level FlightAware Transoceanic
04:16 53.0922 -23.2533 91° East 503 579 32,000  Level FlightAware Transoceanic
04:17 53.0885 -23.0205 92° East 503 579 32,000  Level FlightAware Transoceanic
04:18 53.0844 -22.7878 92° East 503 579 32,000  Level FlightAware Transoceanic
04:19 53.0799 -22.5551 92° East 503 579 32,000  Level FlightAware Transoceanic
04:20 53.0749 -22.3225 92° East 503 579 32,000  Level FlightAware Transoceanic
04:21 53.0694 -22.0899 92° East 503 579 32,000  Level FlightAware Transoceanic
04:22 53.0635 -21.8574 93° East 503 579 32,000  Level FlightAware Transoceanic
04:23 53.0572 -21.6249 93° East 503 579 32,000  Level FlightAware Transoceanic
04:24 53.0504 -21.3925 93° East 503 579 32,000  Level FlightAware Transoceanic
04:25 53.0431 -21.1602 93° East 503 579 32,000  Level FlightAware Transoceanic
04:26 53.0354 -20.9280 93° East 503 579 32,000  Level FlightAware Transoceanic
04:27 53.0272 -20.6959 93° East 503 579 32,000  Level FlightAware Transoceanic
04:28 53.0186 -20.4638 94° East 503 579 32,000  Level FlightAware Transoceanic
04:29 53.0095 -20.2319 94° East 503 579 32,000 60 Level FlightAware Transoceanic
04:30 52.9999 -19.9970 94° East  Level FlightAware Approximate
04:31 53.0000 -19.9943 90° East  Level FlightAware Approximate
04:32 52.9992 -19.7590 90° East  Level FlightAware Approximate
04:33 52.9980 -19.5236 90° East  Level FlightAware Approximate
04:34 52.9962 -19.2887 91° East  Level FlightAware Approximate
04:35 52.9941 -19.0538 91° East  Level FlightAware Approximate
04:36 52.9914 -18.8189 91° East  Level FlightAware Approximate
04:37 52.9883 -18.5840 91° East  Level FlightAware Approximate
04:38 52.9847 -18.3492 91° East  Level FlightAware Approximate
04:39 52.9807 -18.1145 92° East  Level FlightAware Approximate
04:40 52.9762 -17.8797 92° East  Level FlightAware Approximate
04:41 52.9713 -17.6451 92° East  Level FlightAware Approximate
04:42 52.9659 -17.4105 92° East  Level FlightAware Approximate
04:43 52.9600 -17.1759 92° East  Level FlightAware Approximate
04:44 52.9536 -16.9414 92° East  Level FlightAware Approximate
04:45 52.9468 -16.7070 93° East  Level FlightAware Approximate
04:46 52.9396 -16.4727 93° East  Level FlightAware Approximate
04:47 52.9319 -16.2384 93° East  Level FlightAware Approximate
04:48 52.9237 -16.0042 93° East  Level FlightAware Approximate
04:49 52.9150 -15.7702 93° East  Level FlightAware Approximate
04:50 52.9059 -15.5362 94° East  Level FlightAware Approximate
04:51 52.8964 -15.3023 94° East  Level FlightAware Approximate
04:52 52.8864 -15.0685 94° East  Level FlightAware Approximate
04:53 52.8765 -14.8348 94° East  Level FlightAware Approximate
04:54 52.8664 -14.6011 94° East  Level FlightAware Approximate
04:55 52.8559 -14.3675 94° East  Level FlightAware Approximate
04:56 52.8450 -14.1341 94° East  Level FlightAware Approximate
04:57 52.8335 -13.9008 95° East  Level FlightAware Approximate
04:58 52.8216 -13.6676 95° East  Level FlightAware Approximate
04:59 52.8093 -13.4345 95° East  Level FlightAware Approximate
04:59 52.8900 -12.9940 95° East 34,400  Level FlightAware
05:00 52.7965 -13.2016 95° East  Level FlightAware Approximate
05:00 52.8780 -12.8390 97° East 531 611 34,900  Level FlightAware
05:01 52.8640 -12.6570 97° East 534 615 35,000 60 Climbing FlightAware
05:01 52.8490 -12.4760 98° East 532 612 35,000  Level FlightAware
05:02 52.8360 -12.3180 98° East 531 611 35,000  Level FlightAware
05:03 52.8200 -12.1360 98° East 531 611 35,000  Level FlightAware
05:04 52.8050 -11.9640 98° East 530 610 35,000  Level FlightAware
05:04 52.7900 -11.7840 98° East 531 611 35,000  Level FlightAware
05:05 52.7760 -11.6270 98° East 533 613 35,000  Level FlightAware
05:06 52.7610 -11.4610 98° East 534 615 35,000  Level FlightAware
05:06 52.7460 -11.3010 99° East 535 616 35,000  Level FlightAware
05:07 52.7290 -11.1230 99° East 535 616 35,000  Level FlightAware
05:08 52.7140 -10.9660 99° East 538 619 35,000  Level FlightAware
05:08 52.6960 -10.7730 99° East 540 621 35,000  Level FlightAware
05:10 52.6650 -10.4650 99° East 543 625 35,000  Level FlightAware
05:12 52.6283 -10.0695 99° East  Level FlightAware Approximate
05:12 52.6070 -9.8900 99° East 544 626 35,000  Level FlightAware
05:13 52.5870 -9.7030 100° East 543 625 35,000  Level FlightAware
05:15 52.5503 -9.3279 99° East  Level FlightAware Approximate
05:15 52.5440 -9.3020 99° East 543 625 35,000  Level FlightAware
05:16 52.5130 -9.0220 100° East 538 619 35,000 -1,080 Level FlightAware
05:16 52.4987 -8.8871 100° East 488 562 33,500 -2,520 Descending FlightAware UK
05:16 52.4908 -8.8161 100° East 486 559 33,500 4,080 Level FlightAware UK
05:16 52.4940 -8.8590 100° East 537 618 35,000  Climbing FlightAware
05:17 52.4798 -8.7199 100° East 484 557 33,500 -2,400 Descending FlightAware UK
05:17 52.4715 -8.6477 101° East 484 557 33,500 3,600 Level FlightAware UK
05:17 52.4740 -8.6850 101° East 536 617 35,000  Climbing FlightAware
05:17 52.4605 -8.5517 101° East 484 557 33,500 -2,580 Descending FlightAware UK
05:18 52.4522 -8.4801 101° East 480 552 33,500 3,900 Level FlightAware UK
05:18 52.4560 -8.5240 101° East 535 616 35,000  Climbing FlightAware
05:18 52.4408 -8.3846 101° East 484 557 33,500 -2,280 Descending FlightAware UK
05:18 52.4321 -8.3125 101° East 486 559 33,600 4,560 Climbing FlightAware UK
05:18 52.4370 -8.3620 101° East 537 618 35,100 660 Climbing FlightAware
05:19 52.4238 -8.2405 101° East 484 557 33,800 -1,860 Descending FlightAware UK
05:19 52.4153 -8.1684 101° East 484 557 34,100 3,960 Climbing FlightAware UK
05:19 52.4130 -8.1640 101° East 542 624 35,800 960 Climbing FlightAware
05:20 52.4010 -8.0478 101° East 484 557 34,600 -1,680 Descending FlightAware UK
05:20 52.3923 -7.9752 101° East 486 559 34,800 4,860 Climbing FlightAware UK
05:20 52.3940 -8.0050 101° East 545 627 36,400 720 Climbing FlightAware
05:20 52.3806 -7.8782 101° East 486 559 35,100 -1,740 Descending FlightAware UK
05:21 52.3716 -7.8054 101° East 488 562 35,300 4,080 Climbing FlightAware UK
05:21 52.3740 -7.8400 101° East 548 631 36,800 480 Climbing FlightAware
05:21 52.3595 -7.7078 101° East 490 564 35,500 -2,280 Descending FlightAware UK
05:21 52.3503 -7.6341 102° East 488 562 35,500 3,900 Level FlightAware UK
05:21 52.3520 -7.6580 102° East 551 634 37,000  Climbing FlightAware
05:22 52.3380 -7.5361 102° East 488 562 35,500 -2,460 Descending FlightAware UK
05:22 52.3287 -7.4627 102° East 490 564 35,500 4,260 Level FlightAware UK
05:22 52.3310 -7.4930 102° East 553 636 37,000  Climbing FlightAware
05:22 52.3193 -7.3890 102° East 490 564 35,500 -2,760 Descending FlightAware UK
05:23 52.3098 -7.3155 102° East 492 566 35,500 3,000 Level FlightAware UK
05:23 52.3080 -7.3130 102° East 554 638 37,000  Climbing FlightAware
05:23 52.2940 -7.1928 102° East 490 564 35,500 -2,520 Descending FlightAware UK
05:23 52.2845 -7.1184 102° East 492 566 35,500  Level FlightAware UK
05:24 52.2748 -7.0450 102° East 492 566 35,500  Level FlightAware UK
05:24 52.2653 -6.9715 102° East 492 566 35,500 4,260 Level FlightAware UK
05:24 52.2710 -7.0210 102° East 553 636 37,000  Climbing FlightAware
05:24 52.2557 -6.8983 102° East 494 568 35,500 -2,760 Descending FlightAware UK
05:25 52.2460 -6.8251 102° East 492 566 35,500  Level FlightAware UK
05:25 52.2362 -6.7521 102° East 490 564 35,500  Level FlightAware UK
05:25 52.2263 -6.6793 102° East 490 564 35,500  Level FlightAware UK
05:25 52.2165 -6.6067 102° East 490 564 35,500 2,460 Level FlightAware UK
05:26 52.2150 -6.5940 102° East 549 632 37,000  Climbing FlightAware
05:26 52.1970 -6.4618 102° East 490 564 35,500 -2,520 Descending FlightAware UK
05:26 52.1873 -6.3895 102° East 490 564 35,500 4,080 Level FlightAware UK
05:26 52.1910 -6.4200 102° East 545 627 37,000  Climbing FlightAware
05:27 52.1741 -6.2937 102° East 1 1 35,500 -2,400 Descending FlightAware UK
05:27 52.1642 -6.2224 103° East 1 1 35,500 3,600 Level FlightAware UK
05:27 52.1670 -6.2370 103° East 542 624 37,000  Climbing FlightAware
05:27 52.1510 -6.1274 103° East 1 1 35,500 -2,580 Descending FlightAware UK
05:28 52.1411 -6.0562 103° East 1 1 35,500 3,900 Level FlightAware UK
05:28 52.1460 -6.0830 103° East 540 621 37,000  Climbing FlightAware
05:28 52.1283 -5.9613 103° East 1 1 35,500 -2,460 Descending FlightAware UK
05:28 52.1208 -5.8881 99° East 1 1 35,500 4,260 Level FlightAware UK
05:28 52.1260 -5.9190 99° East 546 628 37,000  Climbing FlightAware
05:29 52.1131 -5.8154 99° East 1 1 35,500 -2,760 Descending FlightAware UK
05:29 52.1051 -5.7426 100° East 1 1 35,500 3,000 Level FlightAware UK
05:29 52.1060 -5.7320 100° East 548 631 37,000  Climbing FlightAware
05:30 52.0917 -5.6212 100° East 1 1 35,500 -2,520 Descending FlightAware UK
05:30 52.0836 -5.5485 100° East 1 1 35,500 4,080 Level FlightAware UK
05:30 52.0890 -5.5750 100° East 549 632 37,000  Climbing FlightAware
05:30 52.0723 -5.4514 100° East 1 1 35,500  Descending FlightAware UK
05:31 52.0670 -5.3900 100° East 552 635 37,000  Climbing FlightAware
05:31 52.0523 -5.2810 100° East 480 552 35,500 -2,580 Descending FlightAware UK
05:31 52.0435 -5.2079 101° East 482 555 35,500 3,900 Level FlightAware UK
05:31 52.0480 -5.2260 101° East 554 638 37,000  Climbing FlightAware
05:32 52.0317 -5.1102 101° East 486 559 35,500 -2,460 Descending FlightAware UK
05:32 52.0227 -5.0359 101° East 488 562 35,500 4,260 Level FlightAware UK
05:32 52.0280 -5.0630 101° East 555 639 37,000  Climbing FlightAware
05:32 52.0137 -4.9624 101° East 488 562 35,500 -2,760 Descending FlightAware UK
05:33 52.0045 -4.8890 101° East 486 559 35,500 3,000 Level FlightAware UK
05:33 52.0070 -4.8840 101° East 555 639 37,000  Climbing FlightAware
05:33 51.9894 -4.7666 101° East 484 557 35,500  Descending FlightAware UK
05:33 51.9850 -4.7150 101° East 549 632 37,000  Climbing FlightAware
05:34 51.9648 -4.6227 101° East 486 559 35,500 -2,820 Descending FlightAware UK
05:34 51.9498 -4.5545 110° East 484 557 35,500 3,000 Level FlightAware UK
05:34 51.9480 -4.5450 110° East 546 628 37,000  Climbing FlightAware
05:34 51.9238 -4.4385 110° East 486 559 35,500 -2,520 Descending FlightAware UK
05:35 51.9083 -4.3693 110° East 486 559 35,500 4,080 Level FlightAware UK
05:35 51.9140 -4.3890 110° East 547 629 37,000 5,280 Climbing FlightAware
05:35 51.9010 -4.3320 110° East 547 629 37,000 -2,820 Level FlightAware ADS-B
05:35 51.8774 -4.2309 110° East 488 562 35,500  Descending FlightAware UK
05:36 51.8739 -4.2105 110° East 548 631 37,000  Climbing FlightAware ADS-B
05:36 51.8461 -4.0929 110° East 490 564 35,500  Descending FlightAware UK
05:36 51.8428 -4.0715 110° East 547 629 37,000 2,760 Climbing FlightAware ADS-B
05:36 51.8278 -3.9999 109° East 550 633 37,000 -2,580 Level FlightAware ADS-B
05:37 51.8077 -3.9069 109° East 488 562 35,500  Descending FlightAware UK
05:37 51.8008 -3.8317 109° East 553 636 37,000 1,560 Climbing FlightAware ADS-B
05:38 51.7862 -3.7022 100° East 561 646 37,000 -1,980 Level FlightAware ADS-B
05:38 51.7707 -3.6130 100° East 488 562 35,500  Descending FlightAware UK
05:38 51.7718 -3.5657 100° East 560 644 37,000 1,740 Climbing FlightAware ADS-B
05:39 51.7577 -3.4323 100° East 560 644 37,000  Level FlightAware ADS-B
05:39 51.7442 -3.3043 100° East 559 643 37,000  Level FlightAware ADS-B
05:40 51.7299 -3.1711 100° East 559 643 37,000 -1,800 Level FlightAware ADS-B
05:40 51.7119 -3.0706 100° East 484 557 35,500  Descending FlightAware UK
05:40 51.7164 -3.0476 100° East 560 644 37,000  Climbing FlightAware ADS-B
05:41 51.6984 -2.9469 100° East 490 564 35,500  Descending FlightAware UK
05:41 51.7019 -2.9179 100° East 562 647 37,000 1,980 Climbing FlightAware ADS-B
05:41 51.6878 -2.7902 100° East 561 646 37,000 -1,920 Level FlightAware ADS-B
05:42 51.6704 -2.7001 100° East 488 562 35,500  Descending FlightAware UK
05:42 51.6737 -2.6639 100° East 560 644 37,000  Climbing FlightAware ADS-B
05:42 51.6563 -2.5775 100° East 484 557 35,500  Descending FlightAware UK
05:42 51.6590 -2.5341 100° East 559 643 37,000  Climbing FlightAware ADS-B
05:43 51.6394 -2.4298 100° East 488 562 35,500  Descending FlightAware UK
05:43 51.6437 -2.4009 100° East 559 643 37,000  Climbing FlightAware ADS-B
05:43 51.6249 -2.3068 100° East 486 559 35,500  Descending FlightAware UK
05:43 51.6290 -2.2736 100° East 558 642 37,000  Climbing FlightAware ADS-B
05:44 51.6104 -2.1848 100° East 486 559 35,500  Descending FlightAware UK
05:44 51.6139 -2.1442 100° East 558 642 37,000  Climbing FlightAware ADS-B
05:44 51.5928 -2.0377 100° East 484 557 35,500  Descending FlightAware UK
05:45 51.5991 -2.0187 100° East 558 642 37,000  Climbing FlightAware ADS-B
05:45 51.5784 -1.9160 100° East 484 557 35,500  Descending FlightAware UK
05:45 51.5835 -1.8883 100° East 558 642 37,000  Climbing FlightAware ADS-B
05:45 51.5635 -1.7944 100° East 486 559 35,500  Descending FlightAware UK
05:46 51.5675 -1.7557 100° East 557 641 37,000  Climbing FlightAware ADS-B
05:46 51.5455 -1.6486 100° East 486 559 35,500  Descending FlightAware UK
05:46 51.5526 -1.6336 100° East 556 640 37,000 2,100 Climbing FlightAware ADS-B
05:47 51.5370 -1.5065 101° East 555 639 37,000 -1,800 Level FlightAware ADS-B
05:47 51.5154 -1.4047 101° East 484 557 35,500  Descending FlightAware UK
05:47 51.5216 -1.3821 101° East 554 638 37,000 2,040 Climbing FlightAware ADS-B
05:48 51.5060 -1.2584 101° East 554 638 37,000  Level FlightAware ADS-B
05:48 51.4978 -1.1899 101° East 555 639 37,000 -2,580 Level FlightAware ADS-B
05:48 51.4787 -1.0910 101° East 484 557 35,500  Descending FlightAware UK
05:48 51.4873 -1.0640 101° East 556 640 37,000  Climbing FlightAware ADS-B
05:49 51.4686 -0.9677 101° East 482 555 35,500  Descending FlightAware UK
05:49 51.4774 -0.9359 101° East 556 640 37,000  Climbing FlightAware ADS-B
05:49 51.4591 -0.8455 101° East 480 552 35,500  Descending FlightAware UK
05:50 51.4672 -0.8085 101° East 555 639 37,000  Climbing FlightAware ADS-B
05:50 51.4470 -0.6983 101° East 482 555 35,500  Descending FlightAware UK
05:50 51.4566 -0.6818 101° East 554 638 37,000  Climbing FlightAware ADS-B
05:50 51.4361 -0.5761 101° East 480 552 35,500  Descending FlightAware UK
05:51 51.4456 -0.5576 101° East 555 639 37,000  Climbing FlightAware ADS-B
05:51 51.4226 -0.4303 101° East 482 555 35,500  Descending FlightAware UK
05:51 51.4340 -0.4307 101° East 556 640 37,000  Climbing FlightAware ADS-B
05:51 51.4136 -0.3326 101° East 484 557 35,500  Descending FlightAware UK
05:52 51.4225 -0.3065 101° East 557 641 37,000  Climbing FlightAware ADS-B
05:52 51.3997 -0.1851 101° East 486 559 35,500  Descending FlightAware UK
05:52 51.4108 -0.1822 101° East 557 641 37,000 2,400 Climbing FlightAware ADS-B
05:53 51.3989 -0.0587 99° East 557 641 37,000 -1,920 Level FlightAware ADS-B
05:53 51.3784 0.0356 99° East 484 557 35,500  Descending FlightAware UK
05:53 51.3866 0.0703 99° East 556 640 37,000  Climbing FlightAware ADS-B
05:53 51.3663 0.1576 99° East 486 559 35,500  Descending FlightAware UK
05:54 51.3729 0.2111 99° East 557 641 37,000  Climbing FlightAware ADS-B
05:54 51.3518 0.3037 99° East 484 557 35,500  Descending FlightAware UK
05:54 51.3603 0.3378 99° East 558 642 37,000  Climbing FlightAware ADS-B
05:54 51.3395 0.4262 99° East 484 557 35,500  Descending FlightAware UK
05:55 51.3465 0.4789 99° East 558 642 37,000  Climbing FlightAware ADS-B
05:55 51.3249 0.5731 99° East 1 1 35,500  Descending FlightAware UK
05:55 51.3333 0.6114 99° East 558 642 37,000  Climbing FlightAware ADS-B
05:56 51.3123 0.6957 99° East 1 1 35,500  Descending FlightAware UK
05:56 51.3207 0.7352 99° East 558 642 37,000  Climbing FlightAware ADS-B
05:56 51.2970 0.8417 99° East 1 1 35,500  Descending FlightAware UK
05:56 51.3074 0.8637 99° East 558 642 37,000  Climbing FlightAware ADS-B
05:57 51.2840 0.9640 99° East 1 1 35,500  Descending FlightAware UK
05:57 51.2939 0.9943 99° East 557 641 37,000 1,380 Climbing FlightAware ADS-B
05:58 51.2724 1.1981 99° East 557 641 37,000  Level FlightAware ADS-B
05:59 51.2510 1.4000 100° East 554 638 37,000  Level FlightAware
05:59 51.2330 1.5660 100° East 553 636 37,000  Level FlightAware
06:00 51.2130 1.7420 100° East 553 636 37,000  Level FlightAware
06:01 51.1950 1.9040 100° East 552 635 37,000  Level FlightAware
06:01 51.1770 2.0600 100° East 551 634 37,000  Level FlightAware
06:02 51.1570 2.2350 100° East 552 635 37,000  Level FlightAware
06:03 51.1300 2.4640 101° East 553 636 37,000  Level FlightAware
06:04 51.1060 2.6430 102° East 553 636 37,000  Level FlightAware
06:04 51.0830 2.7690 106° East 552 635 37,000  Level FlightAware
06:05 51.0410 2.9440 111° Southeast 549 632 37,000  Level FlightAware
06:06 50.9860 3.1110 118° Southeast 548 631 37,000 -1,320 Level FlightAware
06:06 50.9380 3.2271 118° Southeast 486 559 35,500  Descending FlightAware UK
06:06 50.9460 3.2300 118° Southeast 547 629 37,000  Climbing FlightAware
06:07 50.9025 3.3346 118° Southeast 486 559 35,500 -2,100 Descending FlightAware UK
06:07 50.8733 3.4186 119° Southeast 486 559 35,500 3,600 Level FlightAware UK
06:07 50.8960 3.3770 119° Southeast 546 628 37,000  Climbing FlightAware
06:08 50.8298 3.5451 119° Southeast 486 559 35,500  Descending FlightAware UK
06:08 50.8360 3.5520 119° Southeast 545 627 37,000  Climbing FlightAware
06:08 50.7861 3.6712 119° Southeast 486 559 35,500  Descending FlightAware UK
06:09 50.7860 3.6940 119° Southeast 546 628 37,000  Climbing FlightAware
06:09 50.7350 3.8181 119° Southeast 488 562 35,500  Descending FlightAware UK
06:09 50.7400 3.8270 119° Southeast 545 627 37,000  Climbing FlightAware
06:10 50.6910 3.9434 119° Southeast 486 559 35,500  Descending FlightAware UK
06:10 50.6870 3.9760 119° Southeast 543 625 37,000 1,440 Climbing FlightAware
06:11 50.6390 4.1120 119° Southeast 542 624 37,000 -1,620 Level FlightAware
06:11 50.5956 4.2132 119° Southeast 486 559 35,500 -2,220 Descending FlightAware UK
06:11 50.5651 4.2949 120° Southeast 486 559 35,500 3,180 Level FlightAware UK
06:11 50.5800 4.2790 120° Southeast 542 624 37,000  Climbing FlightAware
06:12 50.5149 4.4409 120° Southeast 486 559 35,500  Descending FlightAware UK
06:12 50.5310 4.4140 120° Southeast 541 623 37,000  Climbing FlightAware
06:12 50.4928 4.5029 120° Southeast 486 559 35,500  Descending FlightAware UK
06:13 50.4760 4.5670 120° Southeast 539 620 37,000 1,260 Climbing FlightAware
06:14 50.4290 4.6980 119° Southeast 540 621 37,000  Level FlightAware
06:14 50.3720 4.8540 120° Southeast 540 621 37,000  Level FlightAware
06:15 50.3310 4.9650 120° Southeast 539 620 37,000  Level FlightAware
06:16 50.2790 5.1080 120° Southeast 537 618 37,000  Level FlightAware
06:16 50.2200 5.2670 120° Southeast 537 618 37,000  Level FlightAware
06:17 50.1670 5.4110 120° Southeast 537 618 37,000  Level FlightAware
06:18 50.1100 5.5620 120° Southeast 537 618 37,000  Level FlightAware
06:18 50.0730 5.6610 120° Southeast 536 617 37,000  Level FlightAware
06:19 50.0170 5.8100 120° Southeast 534 615 37,000  Level FlightAware
06:20 49.9650 5.9470 121° Southeast 533 613 37,000  Level FlightAware
06:20 49.9150 6.0780 121° Southeast 533 613 37,000  Level FlightAware
06:21 49.8580 6.2250 121° Southeast 534 615 37,000  Level FlightAware
06:22 49.8070 6.3560 121° Southeast 534 615 37,000  Level FlightAware
06:23 49.7470 6.5130 121° Southeast 532 612 37,000  Level FlightAware
06:23 49.6910 6.6560 121° Southeast 532 612 37,000  Level FlightAware
06:24 49.6530 6.7510 122° Southeast 533 613 37,000  Level FlightAware
06:25 49.5800 6.9370 121° Southeast 532 612 37,000  Level FlightAware
06:25 49.5290 7.0670 121° Southeast 531 611 37,000  Level FlightAware
06:26 49.4780 7.1960 121° Southeast 531 611 37,000  Level FlightAware
06:27 49.4200 7.3410 122° Southeast 529 609 37,000  Level FlightAware
06:28 49.3680 7.4700 122° Southeast 530 610 37,000  Level FlightAware
06:28 49.3130 7.6040 122° Southeast 528 608 37,000  Level FlightAware
06:29 49.2580 7.7410 122° Southeast 529 609 37,000  Level FlightAware
06:30 49.2050 7.8700 122° Southeast 529 609 37,000  Level FlightAware
06:30 49.1490 8.0070 122° Southeast 529 609 37,000  Level FlightAware
06:31 49.1100 8.1010 122° Southeast 529 609 37,000  Level FlightAware
06:32 49.0490 8.2480 122° Southeast 530 610 37,000  Level FlightAware
06:32 49.0030 8.3590 122° Southeast 529 609 37,000  Level FlightAware
06:33 48.9440 8.5000 122° Southeast 534 615 37,000  Level FlightAware
06:34 48.8760 8.6290 129° Southeast 532 612 37,000  Level FlightAware
06:34 48.7930 8.7470 137° Southeast 538 619 37,000  Level FlightAware
06:35 48.7190 8.8460 139° Southeast 537 618 37,000  Level FlightAware
06:36 48.6350 8.9570 139° Southeast 537 618 37,000  Level FlightAware
06:37 48.5590 9.0560 139° Southeast 537 618 37,000  Level FlightAware
06:37 48.4830 9.1550 139° Southeast 537 618 37,000  Level FlightAware
06:38 48.3990 9.2640 139° Southeast 537 618 37,000  Level FlightAware
06:39 48.3250 9.3610 139° Southeast 532 612 37,000  Level FlightAware
06:39 48.2510 9.4560 139° Southeast 537 618 37,000  Level FlightAware
06:40 48.1650 9.5690 139° Southeast 537 618 37,000  Level FlightAware
06:41 48.0890 9.6670 139° Southeast 537 618 37,000  Level FlightAware
06:41 48.0040 9.7770 139° Southeast 531 611 37,000  Level FlightAware
06:42 47.9280 9.8740 139° Southeast 530 610 37,000  Level FlightAware
06:43 47.8520 9.9690 140° Southeast 537 618 37,000  Level FlightAware
06:45 47.7266 10.2783 121° Southeast  Level Estimated
06:45 47.6360 10.2110 121° Southeast 537 618 37,000  Level FlightAware
06:45 47.5460 10.3110 143° Southeast 530 610 37,000  Level FlightAware
06:46 47.4690 10.3940 144° Southeast 536 617 37,000  Level FlightAware
06:49 47.2890 10.8352 121° Southeast  Level Estimated
06:49 47.0930 10.6860 121° Southeast 536 617 37,000  Level FlightAware
06:50 46.9990 10.7380 159° South 536 617 37,000  Level FlightAware
06:50 46.8930 10.7990 159° South 536 617 37,000  Level FlightAware
06:51 46.8010 10.8600 156° South 540 621 37,000  Level FlightAware
06:52 46.7180 10.9600 140° Southeast 529 609 37,000  Level FlightAware
06:52 46.6390 11.0540 141° Southeast 534 615 37,000  Level FlightAware
06:53 46.5540 11.1310 148° Southeast 543 625 37,000  Level FlightAware
06:54 46.4570 11.2120 150° Southeast 536 617 37,000  Level FlightAware
06:54 46.3680 11.2860 150° Southeast 535 616 37,000  Level FlightAware
06:55 46.2820 11.3570 150° Southeast 535 616 37,000  Level FlightAware
06:56 46.1830 11.4390 150° Southeast 535 616 37,000  Level FlightAware
06:57 46.0970 11.5090 151° Southeast 535 616 37,000  Level FlightAware
06:57 46.0080 11.5810 151° Southeast 535 616 37,000  Level FlightAware
06:58 45.9110 11.6610 150° Southeast 536 617 37,000  Level FlightAware
06:59 45.7880 11.7610 150° Southeast 537 618 37,000  Level FlightAware
07:00 45.6930 11.8370 151° Southeast 537 618 37,000  Level FlightAware
07:00 45.5990 11.9150 150° Southeast 534 615 37,000  Level FlightAware
07:01 45.5330 12.0130 134° Southeast 519 597 37,000  Level FlightAware
07:02 45.4880 12.1450 116° Southeast 512 589 37,000  Level FlightAware
07:02 45.4480 12.2730 114° Southeast 513 590 37,000  Level FlightAware
07:03 45.4080 12.4010 114° Southeast 515 593 37,000  Level FlightAware
07:04 45.3680 12.5260 114° Southeast 515 593 37,000  Level FlightAware
07:05 45.3130 12.6970 115° Southeast 510 587 37,000  Level FlightAware
07:05 45.2760 12.8050 116° Southeast 518 596 37,000  Level FlightAware
07:07 45.1780 13.0370 121° Southeast 522 601 37,000  Level FlightAware
07:08 45.0870 13.2380 123° Southeast 516 594 37,000  Level FlightAware
07:09 44.9840 13.4640 123° Southeast 514 592 37,000  Level FlightAware
07:10 44.8960 13.6540 123° Southeast 511 588 37,000  Level FlightAware
07:11 44.8300 13.7940 124° Southeast 507 583 37,000  Level FlightAware
07:12 44.7800 13.9020 123° Southeast 505 581 37,000  Level FlightAware
07:12 44.7220 14.0260 123° Southeast 503 579 37,000  Level FlightAware
07:13 44.6720 14.1330 123° Southeast 502 578 37,000  Level FlightAware
07:14 44.6240 14.2330 124° Southeast 505 581 37,000  Level FlightAware
07:16 44.4983 14.5245 121° Southeast  Level Estimated
07:17 44.4248 14.6937 121° Southeast  Level Estimated
07:18 44.3510 14.8625 121° Southeast  Level Estimated
07:19 44.2770 15.0309 122° Southeast  Level Estimated
07:19 44.1770 15.1620 122° Southeast 496 571 37,000  Level FlightAware
07:20 44.2027 15.1988 122° Southeast  Level Estimated
07:20 44.1260 15.2660 124° Southeast 495 570 37,000  Level FlightAware
07:21 44.0650 15.3890 125° Southeast 494 568 37,000  Level FlightAware
07:22 44.0160 15.4880 125° Southeast 494 568 37,000  Level FlightAware
07:22 43.9550 15.6100 125° Southeast 493 567 37,000  Level FlightAware
07:23 43.9030 15.7140 125° Southeast 494 568 37,000  Level FlightAware
07:24 43.8430 15.8350 124° Southeast 492 566 37,000  Level FlightAware
07:24 43.7960 15.9280 125° Southeast 491 565 37,000  Level FlightAware
07:25 43.7380 16.0420 125° Southeast 490 564 37,000  Level FlightAware
07:26 43.6790 16.1590 125° Southeast 490 564 37,000  Level FlightAware
07:26 43.6260 16.2630 125° Southeast 491 565 37,000  Level FlightAware
07:27 43.5660 16.3800 125° Southeast 500 575 37,000  Level FlightAware
07:28 43.5150 16.4800 125° Southeast 503 579 37,000  Level FlightAware
07:29 43.4600 16.5880 125° Southeast 505 581 37,000  Level FlightAware
07:29 43.3980 16.7070 126° Southeast 505 581 37,000  Level FlightAware
07:30 43.3460 16.8070 126° Southeast 506 582 37,000  Level FlightAware
07:31 43.2900 16.9140 126° Southeast 507 583 37,000  Level FlightAware
07:31 43.2290 17.0310 126° Southeast 506 582 37,000  Level FlightAware
07:32 43.1730 17.1390 125° Southeast 509 586 37,000  Level FlightAware
07:33 43.1120 17.2550 126° Southeast 510 587 37,000  Level FlightAware
07:33 43.0540 17.3640 126° Southeast 510 587 37,000  Level FlightAware
07:34 42.9990 17.4690 126° Southeast 508 585 37,000  Level FlightAware
07:35 42.9370 17.5850 126° Southeast 507 583 37,000  Level FlightAware
07:36 42.8810 17.6890 126° Southeast 507 583 37,000  Level FlightAware
07:36 42.8170 17.8090 126° Southeast 507 583 37,000  Level FlightAware
07:37 42.7610 17.9130 126° Southeast 507 583 37,000  Level FlightAware
07:38 42.7070 18.0140 126° Southeast 512 589 37,000  Level FlightAware
07:38 42.6380 18.1400 127° Southeast 512 589 37,000  Level FlightAware
07:39 42.5810 18.2420 127° Southeast 514 592 37,000  Level FlightAware
07:40 42.5060 18.3510 133° Southeast 517 595 37,000  Level FlightAware
07:40 42.4380 18.4420 135° Southeast 516 594 37,000  Level FlightAware
07:41 42.3700 18.5330 135° Southeast 515 593 37,000  Level FlightAware
07:42 42.2950 18.6330 135° Southeast 515 593 37,000  Level FlightAware
07:43 42.2270 18.7230 136° Southeast 516 594 37,000  Level FlightAware
07:43 42.1580 18.8140 136° Southeast 518 596 37,000  Level FlightAware
07:44 42.0800 18.9180 135° Southeast 518 596 37,000  Level FlightAware
07:45 42.0110 19.0080 136° Southeast 519 597 37,000  Level FlightAware
07:45 41.9450 19.0950 136° Southeast 518 596 37,000  Level FlightAware
07:46 41.8670 19.1970 136° Southeast 516 594 37,000  Level FlightAware
07:47 41.8050 19.2790 135° Southeast 517 595 37,000  Level FlightAware
07:47 41.7190 19.3890 136° Southeast 515 593 37,000  Level FlightAware
07:48 41.6440 19.4840 137° Southeast 512 589 37,000  Level FlightAware
07:49 41.5770 19.5700 136° Southeast 508 585 37,000  Level FlightAware
07:50 41.5070 19.6580 137° Southeast 505 581 37,000  Level FlightAware
07:50 41.4300 19.7560 136° Southeast 505 581 37,000  Level FlightAware
07:51 41.3800 19.8190 137° Southeast 504 580 37,000  Level FlightAware
07:52 41.2870 19.9350 137° Southeast 505 581 37,000  Level FlightAware
07:52 41.2390 19.9950 137° Southeast 505 581 37,000  Level FlightAware
07:55 41.0611 20.3566 123° Southeast  Level Estimated
07:56 40.9834 20.5132 123° Southeast  Level Estimated
07:57 40.9055 20.6694 123° Southeast  Level Estimated
07:58 40.8274 20.8253 123° Southeast  Level Estimated
07:59 40.7491 20.9808 124° Southeast  Level Estimated
07:59 40.5940 20.7920 124° Southeast 508 585 37,000  Level FlightAware
08:01 40.4422 21.1014 123° Southeast  Level Estimated
08:01 40.3250 21.1170 123° Southeast 506 582 37,000  Level FlightAware
08:04 40.1417 21.4910 123° Southeast  Level Estimated
08:05 40.0644 21.6473 123° Southeast  Level Estimated
08:06 39.9870 21.8033 123° Southeast  Level Estimated
08:07 39.9093 21.9589 123° Southeast  Level Estimated
08:08 39.8314 22.1142 123° Southeast  Level Estimated
08:09 39.7533 22.2691 123° Southeast  Level Estimated
08:10 39.6750 22.4237 123° Southeast  Level Estimated
08:10 39.4090 22.2130 123° Southeast 521 600 37,000  Level FlightAware
08:12 39.2796 22.4811 122° Southeast  Level Estimated
08:13 39.2039 22.6367 122° Southeast  Level Estimated
08:14 39.1280 22.7921 122° Southeast  Level Estimated
08:15 39.0519 22.9471 122° Southeast  Level Estimated
08:15 38.8490 22.8640 122° Southeast 522 601 37,000  Level FlightAware
08:16 38.7650 22.9600 138° Southeast 522 601 37,000  Level FlightAware
08:16 38.6900 23.0460 138° Southeast 522 601 37,000  Level FlightAware
08:17 38.5840 23.1660 138° Southeast 522 601 37,000  Level FlightAware
08:18 38.5220 23.2370 138° Southeast 524 603 37,000  Level FlightAware
08:19 38.4500 23.3190 138° Southeast 524 603 37,000  Level FlightAware
08:19 38.3570 23.4230 139° Southeast 525 604 37,000  Level FlightAware
08:20 38.2840 23.5060 138° Southeast 526 605 37,000  Level FlightAware
08:21 38.2110 23.5880 139° Southeast 524 603 37,000  Level FlightAware
08:21 38.1380 23.6690 139° Southeast 524 603 37,000  Level FlightAware
08:22 38.0580 23.7590 138° Southeast 525 604 37,000  Level FlightAware
08:23 37.9750 23.8520 139° Southeast 525 604 37,000  Level FlightAware
08:24 37.9140 23.9250 137° Southeast 523 602 37,000  Level FlightAware
08:24 37.8500 24.0550 122° Southeast 522 601 37,000  Level FlightAware
08:25 37.7990 24.1560 123° Southeast 523 602 37,000  Level FlightAware
08:26 37.7450 24.2580 124° Southeast 524 603 37,000  Level FlightAware
08:26 37.6820 24.3740 124° Southeast 524 603 37,000  Level FlightAware
08:27 37.6280 24.4790 123° Southeast 525 604 37,000  Level FlightAware
08:28 37.5720 24.5930 122° Southeast 525 604 37,000  Level FlightAware
08:29 37.5190 24.6980 122° Southeast 526 605 37,000  Level FlightAware
08:29 37.4660 24.8020 123° Southeast 527 606 37,000  Level FlightAware
08:30 37.4090 24.9150 122° Southeast 527 606 37,000  Level FlightAware
08:31 37.3560 25.0180 123° Southeast 527 606 37,000  Level FlightAware
08:31 37.2950 25.1370 123° Southeast 527 606 37,000  Level FlightAware
08:32 37.2420 25.2400 123° Southeast 527 606 37,000  Level FlightAware
08:33 37.1900 25.3410 123° Southeast 525 604 37,000  Level FlightAware
08:33 37.1320 25.4530 123° Southeast 524 603 37,000  Level FlightAware
08:34 37.0790 25.5540 123° Southeast 522 601 37,000  Level FlightAware
08:35 37.0210 25.6670 123° Southeast 521 600 37,000  Level FlightAware
08:36 36.9650 25.7730 123° Southeast 519 597 37,000  Level FlightAware
08:36 36.9130 25.8730 123° Southeast 520 598 37,000  Level FlightAware
08:37 36.8600 25.9740 123° Southeast 520 598 37,000  Level FlightAware
08:38 36.8060 26.0770 123° Southeast 520 598 37,000  Level FlightAware
08:38 36.7500 26.1820 124° Southeast 520 598 37,000  Level FlightAware
08:39 36.6980 26.2820 123° Southeast 520 598 37,000  Level FlightAware
08:40 36.6530 26.3680 123° Southeast 520 598 37,000  Level FlightAware
08:40 36.6090 26.4530 123° Southeast 520 598 37,000  Level FlightAware
08:41 36.5640 26.5390 123° Southeast 520 598 37,000  Level FlightAware
08:42 36.5080 26.6450 123° Southeast 520 598 37,000  Level FlightAware
08:43 36.4640 26.7310 122° Southeast 520 598 37,000  Level FlightAware
08:43 36.4190 26.8160 123° Southeast 520 598 37,000  Level FlightAware
08:44 36.3750 26.9010 123° Southeast 520 598 37,000  Level FlightAware
08:45 36.3300 26.9860 123° Southeast 520 598 37,000  Level FlightAware
08:45 36.2860 27.0710 123° Southeast 520 598 37,000  Level FlightAware
08:46 36.2300 27.1780 123° Southeast 520 598 37,000  Level FlightAware
08:47 36.1850 27.2630 123° Southeast 520 598 37,000  Level FlightAware
08:47 36.1410 27.3480 123° Southeast 520 598 37,000  Level FlightAware
08:48 36.0960 27.4330 123° Southeast 520 598 37,000  Level FlightAware
08:50 35.8400 27.8550 127° Southeast 525 604 37,000  Level FlightAware
08:50 35.7950 27.9370 124° Southeast 526 605 37,000  Level FlightAware
08:51 35.7200 28.0700 125° Southeast 529 609 37,000  Level FlightAware
08:52 35.6650 28.1670 125° Southeast 528 608 37,000  Level FlightAware
08:52 35.6040 28.2750 125° Southeast 527 606 37,000  Level FlightAware
08:53 35.5490 28.3710 125° Southeast 526 605 37,000  Level FlightAware
08:54 35.4920 28.4720 125° Southeast 527 606 37,000  Level FlightAware
08:54 35.4290 28.5830 125° Southeast 527 606 37,000  Level FlightAware
08:55 35.3720 28.6830 125° Southeast 528 608 37,000  Level FlightAware
08:56 35.3160 28.7790 126° Southeast 529 609 37,000  Level FlightAware
08:57 35.2540 28.8880 125° Southeast 529 609 37,000  Level FlightAware
08:57 35.1970 28.9870 125° Southeast 530 610 37,000  Level FlightAware
08:58 35.1330 29.0970 125° Southeast 530 610 37,000  Level FlightAware
08:59 35.0810 29.1860 126° Southeast 531 611 37,000  Level FlightAware
08:59 35.0360 29.2650 125° Southeast 531 611 37,000  Level FlightAware
09:00 34.9780 29.3630 126° Southeast 531 611 37,000  Level FlightAware
09:01 34.9200 29.4640 125° Southeast 531 611 37,000  Level FlightAware
09:01 34.8380 29.6010 126° Southeast 533 613 37,000  Level FlightAware
09:02 34.7810 29.6980 126° Southeast 530 610 37,000  Level FlightAware
09:03 34.7210 29.8000 126° Southeast 530 610 37,000  Level FlightAware
09:04 34.6570 29.9070 126° Southeast 532 612 37,000  Level FlightAware
09:04 34.6060 29.9950 125° Southeast 532 612 37,000  Level FlightAware
09:05 34.5400 30.1280 121° Southeast 543 625 37,000  Level FlightAware
09:06 34.4880 30.2350 121° Southeast 543 625 37,000  Level FlightAware
09:06 34.4370 30.3420 120° Southeast 541 623 37,000  Level FlightAware
09:07 34.3840 30.4520 120° Southeast 540 621 37,000  Level FlightAware
09:08 34.3330 30.5560 121° Southeast 541 623 37,000  Level FlightAware
09:08 34.2730 30.6780 121° Southeast 539 620 37,000  Level FlightAware
09:09 34.2230 30.7810 120° Southeast 539 620 37,000  Level FlightAware
09:10 34.1700 30.8880 121° Southeast 541 623 37,000  Level FlightAware
09:11 34.1150 31.0000 121° Southeast 542 624 37,000  Level FlightAware
09:11 34.0610 31.1100 121° Southeast 543 625 37,000  Level FlightAware
09:12 34.0030 31.2270 121° Southeast 542 624 37,000  Level FlightAware
09:12 33.9660 31.3020 121° Southeast 543 625 37,000  Level FlightAware
09:14 33.8850 31.4630 121° Southeast 539 620 37,000  Level FlightAware
09:14 33.8330 31.5680 121° Southeast 538 619 37,000  Level FlightAware
09:15 33.7740 31.6870 121° Southeast 540 621 37,000  Level FlightAware
09:16 33.7220 31.7890 121° Southeast 537 618 37,000  Level FlightAware
09:16 33.6630 31.9060 121° Southeast 537 618 37,000  Level FlightAware
09:17 33.6110 32.0080 121° Southeast 537 618 37,000  Level FlightAware
09:18 33.5540 32.1220 121° Southeast 536 617 37,000  Level FlightAware
09:18 33.5010 32.2260 121° Southeast 537 618 37,000  Level FlightAware
09:19 33.4490 32.3270 122° Southeast 536 617 37,000  Level FlightAware
09:20 33.3910 32.4420 121° Southeast 537 618 37,000  Level FlightAware
09:21 33.3300 32.5600 122° Southeast 537 618 37,000  Level FlightAware
09:21 33.2740 32.6680 122° Southeast 536 617 37,000 -720 Level FlightAware
09:22 33.1890 32.8340 121° Southeast 533 613 35,800 -1,440 Descending FlightAware
09:23 33.1550 32.9010 121° Southeast 533 613 34,800 -2,100 Descending FlightAware
09:24 33.0670 33.0730 121° Southeast 504 580 32,500 -2,520 Descending FlightAware
09:25 33.0160 33.1740 121° Southeast 505 581 30,200 -2,880 Descending FlightAware
09:25 32.9640 33.2740 122° Southeast 502 578 28,500 -2,580 Descending FlightAware
09:26 32.9150 33.3710 121° Southeast 492 566 26,800 -2,880 Descending FlightAware
09:27 32.8630 33.4720 121° Southeast 493 567 24,500 -2,880 Descending FlightAware
09:28 32.8160 33.5640 121° Southeast 481 554 22,800 -1,860 Descending FlightAware
09:28 32.7650 33.6620 122° Southeast 449 517 21,900 -1,080 Descending FlightAware
09:29 32.7220 33.7470 121° Southeast 416 479 21,300 -1,020 Descending FlightAware
09:30 32.6830 33.8220 122° Southeast 391 450 20,600 -1,680 Descending FlightAware
09:30 32.6400 33.8940 125° Southeast 362 417 19,000 -2,340 Descending FlightAware
09:31 32.6240 33.9060 148° Southeast 348 400 18,500 -2,220 Descending FlightAware
09:31 32.5570 33.9290 164° South 332 382 17,000 -1,980 Descending FlightAware
09:32 32.4980 33.9490 164° South 326 375 15,700 -2,160 Descending FlightAware
09:33 32.4330 33.9700 165° South 318 366 14,000 -2,160 Descending FlightAware
09:33 32.3790 33.9840 168° South 310 357 12,700 -1,800 Descending FlightAware
09:34 32.3180 34.0110 159° South 311 358 11,500 -1,680 Descending FlightAware
09:34 32.3080 34.0270 126° Southeast 311 358 11,200 -1,680 Descending FlightAware
09:35 32.3010 34.0490 111° Southeast 308 354 10,800 -1,200 Descending FlightAware
09:35 32.2950 34.1120 96° East 299 344 10,100 -1,200 Descending FlightAware
09:36 32.2910 34.1640 95° East 292 336 9,400 -1,440 Descending FlightAware
09:36 32.2870 34.2050 97° East 289 333 8,800 -1,440 Descending FlightAware
09:37 32.2820 34.2500 97° East 289 333 8,100 -1,500 Descending FlightAware
09:37 32.2800 34.2760 95° East 289 333 7,700 -720 Descending FlightAware
09:37 32.2760 34.3180 96° East 288 331 7,600 -240 Descending FlightAware
09:40 32.1220 34.6356 125° Southeast  Level FlightAware Approximate
09:41 32.0511 34.7806 115° Southeast  Level FlightAware Approximate
09:42 32.0000 34.8667 125° Southeast  Level FlightAware Approximate
09:43 32.0095 34.8769 125° Southeast  Level Estimated
09:44 32.0095 34.8769 125° Southeast  Level Estimated
09:45 32.0095 34.8769 125° Southeast  Level Estimated
09:46 32.0095 34.8769 125° Southeast  Level Estimated
09:47 32.0095 34.8769 125° Southeast  Level Estimated
09:48 32.0095 34.8769 125° Southeast  Level Estimated
09:49 32.0095 34.8769 125° Southeast  Level Estimated
09:50 32.0095 34.8769 125° Southeast  Level Estimated
09:51 32.0095 34.8769 125° Southeast  Level Estimated
09:52 32.0095 34.8769 125° Southeast  Level Estimated
09:53 32.0095 34.8769 125° Southeast  Level Estimated
09:54 32.0095 34.8769 125° Southeast  Level Estimated